Weather History for Alliance, NE

Change the Weather History Date:

Tuesday, February 19, 2013

  Actual Average Record
Temperature  
Mean Temperature -7 °C -2 °C  
Max Temperature 2 °C 6 °C 18 °C (1981)
Min Temperature -17 °C -11 °C -26 °C (2006)
Degree Days  
Heating Degree Days 46 37  
Month to date heating degree days 689 740  
Since 1 July heating degree days 4758 5085  
Cooling Degree Days 0 0  
Month to date cooling degree days 0 0  
Year to date cooling degree days 0 0  
Moisture  
Dew Point -12 °C    
Average Humidity 70    
Maximum Humidity 87    
Minimum Humidity 52    
Precipitation  
Precipitation 0.00 mm 0.51 mm 0.69 mm (1953)
Month to date precipitation T 0.26  
Year to date precipitation 0.22 0.44  
Sea Level Pressure  
Sea Level Pressure 1021 hPa    
Wind  
Wind Speed 20 km/h (SSE)    
Max Wind Speed 40 km/h    
Max Gust Speed 50 km/h    
Visibility 16 kilometers    
Events      
T = Trace of Precipitation, MM = Missing Value Source: NWS Daily Summary

Daily Weather History Graph

Daily Weather History Graph

Search for Another Location

Airport:

Trip Planner

Search our weather history database for the weather conditions in past years. The results will help you decide how hot, cold, wet, or windy it might be!

Date:

Astronomy

Feb. 19, 2013 Rise Set
Actual Time 6:41 AM MST 5:29 PM MST
Civil Twilight 6:12 AM MST 5:57 PM MST
Nautical Twilight 5:40 AM MST 6:30 PM MST
Astronomical Twilight 5:07 AM MST 7:02 PM MST
Moon 11:59 AM MST (2/19) 2:17 AM MST (2/19)
Length of Visible Light 11h 45m
Length of Day
10h 48m
Waxing Gibbous, 68% of the Moon is Illuminated
Feb 19
Waxing Gibbous
Feb 25
Full
Mar 4
Last Quarter
Mar 11
New
Mar 19
First Quarter

Hourly Weather History & Observations

Time (MST) Temp. Windchill Dew Point Humidity Pressure Visibility Wind Dir Wind Speed Gust Speed Precip Events Conditions
12:53 AM -12.8 °C -19.0 °C -15.0 °C 84% 1023.3 hPa 16.1 km West 11.1 km/h / 3.1 m/s - N/A   Clear
1:53 AM -14.4 °C - -16.7 °C 83% 1023.7 hPa 16.1 km Calm Calm - N/A   Clear
2:53 AM -15.6 °C -20.7 °C -17.8 °C 84% 1024.0 hPa 16.1 km WNW 7.4 km/h / 2.1 m/s - N/A   Clear
3:53 AM -16.7 °C -23.7 °C -18.9 °C 83% 1024.2 hPa 16.1 km WSW 11.1 km/h / 3.1 m/s - N/A   Clear
4:53 AM -16.1 °C - -18.9 °C 80% 1024.7 hPa 16.1 km Calm Calm - N/A   Clear
5:53 AM -15.6 °C - -18.9 °C 76% 1025.2 hPa 16.1 km Calm Calm - N/A   Clear
6:28 AM -16.0 °C - -18.0 °C 85% 1019.5 hPa 16.1 km Calm Calm - N/A   Scattered Clouds
6:36 AM -14.0 °C - -17.0 °C 79% 1019.5 hPa 16.1 km Calm Calm - N/A   Mostly Cloudy
6:53 AM -14.4 °C - -17.2 °C 80% 1025.2 hPa 16.1 km Calm Calm - N/A   Mostly Cloudy
7:05 AM -14.0 °C - -17.0 °C 79% 1019.2 hPa 16.1 km Calm Calm - N/A   Scattered Clouds
7:53 AM -11.1 °C - -12.8 °C 88% 1025.0 hPa 16.1 km Calm Calm - N/A   Clear
8:53 AM -6.7 °C -13.0 °C -8.9 °C 85% 1024.5 hPa 16.1 km SSE 16.7 km/h / 4.6 m/s - N/A   Clear
9:17 AM -6.0 °C -12.8 °C -8.0 °C 86% 1019.2 hPa 16.1 km SE 20.4 km/h / 5.7 m/s - N/A   Partly Cloudy
9:53 AM -4.0 °C -10.3 °C -8.0 °C 74% 1019.2 hPa 16.1 km SSE 20.4 km/h / 5.7 m/s - N/A   Scattered Clouds
11:53 AM 0.0 °C -6.0 °C -7.2 °C 59% 1021.9 hPa 16.1 km SE 25.9 km/h / 7.2 m/s 35.2 km/h / 9.8 m/s N/A   Clear
12:53 PM 1.7 °C -4.0 °C -7.2 °C 52% 1020.3 hPa 16.1 km SSE 27.8 km/h / 7.7 m/s 42.6 km/h / 11.8 m/s N/A   Clear
1:53 PM 2.2 °C -3.9 °C -7.2 °C 50% 1019.7 hPa 16.1 km SSE 33.3 km/h / 9.3 m/s 42.6 km/h / 11.8 m/s N/A   Clear
2:53 PM 1.7 °C -4.7 °C -6.7 °C 54% 1019.4 hPa 16.1 km SE 35.2 km/h / 9.8 m/s 46.3 km/h / 12.9 m/s N/A   Clear
3:53 PM 1.7 °C -4.7 °C -6.7 °C 54% 1019.3 hPa 16.1 km SE 35.2 km/h / 9.8 m/s 44.4 km/h / 12.3 m/s N/A   Clear
5:53 PM -1.1 °C -7.2 °C -7.8 °C 61% 1019.3 hPa 16.1 km SE 24.1 km/h / 6.7 m/s - N/A   Clear
6:53 PM -2.8 °C -8.8 °C -7.8 °C 69% 1019.6 hPa 16.1 km ESE 20.4 km/h / 5.7 m/s - N/A   Clear
7:53 PM -3.9 °C -11.3 °C -8.3 °C 72% 1019.2 hPa 16.1 km SE 27.8 km/h / 7.7 m/s - N/A   Clear
8:53 PM -3.9 °C -12.1 °C -8.9 °C 69% 1018.4 hPa 16.1 km SE 35.2 km/h / 9.8 m/s - N/A   Clear
9:53 PM -4.4 °C -12.6 °C -10.0 °C 65% 1018.8 hPa 16.1 km SE 33.3 km/h / 9.3 m/s 48.2 km/h / 13.4 m/s N/A   Clear
10:53 PM -6.0 °C -14.5 °C -11.0 °C 68% 1014.4 hPa 16.1 km SE 31.5 km/h / 8.7 m/s 48.2 km/h / 13.4 m/s N/A   Clear
11:53 PM -6.7 °C -15.1 °C -12.2 °C 65% 1017.4 hPa 16.1 km SE 29.6 km/h / 8.2 m/s - N/A   Clear